RH
91 94 96 96 92 79 77 76 74 71 76 73 76 81 84 83 81 85 85 80 80 80 80 82 81 77 80 81 82 79 82 82 86 71 60 53 53 49 38 36 53 60 80
89 93 93 94 95 87 81 77 75 81 75 74 74 80 82 82 80 82 84 80 78 76 77 79 78 67 76 75 79 79 78 74 80 82 68 65 63 56 53 49 37 45 57
90 90 94 95 96 92 87 82 80 79 79 76 71 78 80 79 82 81 75 76 75 75 73 76 79 77 79 77 76 78 78 66 72 77 77 66 60 59 63 60 53 50 52
90 91 89 91 92 90 91 84 85 80 83 78 72 74 76 78 77 77 74 75 77 74 74 76 75 76 80 76 74 75 71 76 74 76 76 74 69 59 64 70 68 52 53
88 88 87 92 93 94 94 90 89 83 87 87 84 81 80 78 68 76 77 77 82 80 78 75 75 76 76 74 74 74 72 75 75 76 77 73 75 72 70 64 67 58 49
89 84 86 92 94 92 91 90 91 85 89 93 90 91 90 73 72 73 70 75 74 82 85 79 74 73 72 72 71 71 77 79 77 75 75 75 68 67 63 66 62 62 65
88 88 85 87 87 90 92 93 92 86 94 93 93 94 92 87 79 74 70 66 74 81 81 79 75 64 70 67 70 68 72 76 84 78 74 71 70 62 61 65 70 67 62
89 86 89 88 88 91 91 92 92 94 95 95 94 94 95 88 79 74 69 68 74 79 78 77 77 76 76 76 79 89 87 74 67 67 79 70 63 58 60 59 65 64 59
87 85 85 86 87 88 86 89 92 97 97 97 97 95 95 92 79 73 71 78 76 81 77 75 74 81 81 79 83 91 87 82 73 85 73 72 73 72 63 60 69 70 69
76 73 83 86 85 82 83 90 94 98 97 96 94 94 94 92 84 74 70 80 92 85 81 76 73 71 75 76 78 90 89 79 72 67 80 81 72 76 76 66 81 76 72
60 65 71 81 82 82 88 95 96 96 96 94 96 92 92 93 87 73 67 79 93 95 88 83 74 77 78 82 81 89 91 79 74 68 72 78 80 87 81 71 61 91 85
57 56 62 70 63 74 86 94 97 97 95 93 95 93 95 92 83 75 66 68 75 95 93 92 90 84 79 82 85 94 86 87 91 81 90 95 93 88 83 74 66 63 71
52 49 54 53 51 67 87 90 95 94 96 96 97 97 93 86 88 72 69 70 74 86 91 88 82 78 81 86 87 91 93 88 92 95 96 96 89 80 71 72 68 65 63
47 47 47 47 54 58 46 72 94 94 96 94 97 96 95 87 83 78 80 85 76 82 84 91 79 76 74 77 84 89 90 94 98 94 87 81 80 78 76 74 77 79 80
42 42 40 43 53 55 47 62 81 91 87 95 95 93 92 85 78 66 70 76 76 76 79 84 85 84 84 84 84 89 91 93 94 97 95 91 86 79 79 77 78 80 86
40 38 41 47 56 49 51 53 47 54 57 59 57 65 62 62 63 65 67 66 68 73 81 88 89 90 90 91 90 89 91 92 94 95 96 97 98 93 92 77 83 82 82
42 39 43 52 56 56 55 57 63 65 60 63 62 61 59 62 65 66 68 66 70 76 85 88 90 90 93 93 93 93 94 94 94 94 95 96 96 97 97 98 90 81 82
64 54 58 58 55 58 60 61 63 75 75 76 73 63 63 64 66 67 69 69 75 78 85 89 91 91 90 91 92 94 93 93 93 94 94 95 96 97 97 98 100 97 92
92 94 80 71 61 61 63 64 67 72 78 81 80 72 63 64 64 69 71 78 85 86 88 87 87 90 91 90 90 91 92 94 94 94 94 95 95 95 94 94 94 94 94
96 94 92 83 77 76 75 74 78 81 85 81 81 80 66 70 76 80 79 81 84 86 87 88 84 86 91 92 91 90 88 89 91 93 94 94 94 94 94 94 95 95 96
95 95 91 93 88 85 84 83 83 83 85 81 80 70 68 80 80 85 88 86 89 88 88 88 85 84 87 91 92 92 92 87 87 89 91 92 94 94 94 94 95 96 95
94 95 93 93 89 90 89 88 89 89 89 88 84 74 78 84 87 88 90 92 92 91 87 90 88 89 92 94 95 95 94 92 88 85 87 88 90 92 93 94 94 95 95
94 94 94 93 87 80 88 89 90 91 90 86 83 79 82 87 88 91 92 94 96 93 91 91 90 91 92 93 93 94 96 95 92 88 87 88 85 87 90 92 93 93 94
94 94 94 93 92 89 89 91 91 84 84 81 84 84 88 90 89 91 91 93 97 96 96 95 92 93 92 94 93 92 78 96 87 88 87 89 87 84 85 88 91 93 93
89 93 93 93 93 90 88 94 93 90 82 81 87 88 90 90 91 91 92 94 96 99 98 98 97 94 91 93 95 91 63 64 74 90 87 87 92 86 86 86 91 90 92
92 93 94 93 93 90 89 90 92 90 91 92 92 94 92 92 92 94 94 94 95 94 96 98 98 96 92 92 96 69 59 66 67 71 92 91 91 84 86 87 90 92 93
Wind_Speed
5 3 3 3 3 2 2 3 3 5 5 6 6 6 7 7 5 5 7 8 8 7 7 8 9 8 7 6 6 8 9 10 16 13 11 11 14 15 15 13 9 10 11
5 4 5 4 2 2 3 3 4 5 6 7 7 6 7 8 7 8 8 9 9 10 9 8 9 9 9 9 8 11 11 11 13 24 13 12 15 13 14 16 14 11 12
6 6 4 4 3 4 3 4 4 5 6 7 7 7 8 9 8 9 11 11 10 10 11 12 12 11 11 9 10 10 10 11 13 16 16 12 13 11 13 14 15 14 12
6 5 5 4 4 3 3 5 5 5 6 7 8 9 10 9 10 11 11 12 12 11 12 13 14 14 15 14 13 14 13 13 13 15 16 15 13 13 13 13 12 11 13
7 7 7 4 4 3 4 5 4 4 5 5 7 8 9 9 8 9 11 12 12 13 13 14 15 18 26 24 14 15 16 15 14 15 17 15 15 13 17 10 14 11 15
8 8 6 5 4 5 5 4 3 5 5 3 5 6 8 8 16 19 18 12 14 14 13 14 15 23 24 32 35 37 30 19 21 17 17 20 22 17 14 13 14 14 17
8 6 6 5 5 5 4 2 4 5 2 5 6 5 8 8 17 19 20 12 12 13 15 15 16 14 24 20 28 38 38 41 42 25 26 25 22 18 15 17 17 15 16
7 7 6 6 6 4 3 3 3 3 3 4 5 6 7 8 17 19 21 12 12 14 16 17 19 20 19 23 23 25 26 28 31 26 30 29 24 20 19 17 16 14 14
7 8 7 7 6 4 4 4 4 2 3 3 4 6 7 9 18 20 17 10 12 14 15 16 18 19 25 31 24 26 27 27 27 41 44 44 41 38 28 16 18 17 17
9 10 7 7 7 7 6 4 3 2 4 4 6 5 10 9 17 20 18 8 10 10 14 14 23 24 31 31 24 23 27 27 24 26 21 36 39 32 39 28 14 16 16
7 6 7 8 7 7 4 3 3 2 3 4 4 6 6 9 10 21 21 9 9 10 10 11 11 27 31 32 32 23 32 32 29 23 21 19 20 23 20 22 25 16 13
7 7 8 8 7 5 6 3 3 2 2 5 4 5 4 7 15 17 22 20 20 10 10 9 12 27 28 30 25 34 30 26 16 17 16 17 17 17 18 20 23 21 18
7 8 8 8 7 5 5 4 1 1 1 4 3 3 5 7 6 18 21 22 21 12 10 18 25 26 26 19 29 32 29 7 12 16 14 12 12 12 16 17 20 24 23
7 8 8 8 6 5 4 3 3 2 2 3 3 2 4 6 7 7 7 8 15 12 15 12 18 20 21 21 19 18 13 13 6 7 9 10 10 12 14 14 15 15 17
7 8 8 7 7 5 4 4 3 4 4 3 3 2 3 6 8 17 15 9 10 14 13 9 10 12 14 15 15 15 14 14 13 11 7 10 11 13 14 15 15 14 17
7 8 8 6 4 4 3 2 2 1 2 5 8 6 4 12 17 19 19 18 22 23 10 10 12 13 13 14 15 15 14 17 13 11 8 6 9 13 14 15 15 17 15
8 8 7 7 5 4 3 3 3 2 3 6 8 9 11 12 15 18 18 17 19 17 10 10 11 12 12 13 14 14 15 14 14 11 9 8 7 6 14 12 15 15 16
7 15 6 6 5 4 4 3 3 3 1 1 6 9 10 12 14 16 18 12 7 11 9 10 11 12 12 12 13 14 14 14 14 12 11 10 9 6 5 3 6 11 14
7 6 6 5 5 6 4 4 3 4 2 1 1 6 9 11 12 15 17 7 7 8 8 9 9 10 11 12 12 11 14 14 15 13 13 12 10 9 10 10 10 14 12
5 13 10 5 4 5 4 4 4 4 3 1 2 3 3 6 5 6 6 7 7 7 7 7 9 9 9 10 11 11 11 12 13 13 13 13 13 13 14 15 14 12 10
3 5 12 5 4 5 4 4 4 4 3 2 1 3 9 4 4 4 5 5 6 6 7 8 7 7 8 8 9 10 10 12 12 12 13 13 13 13 13 13 12 10 8
4 3 6 5 4 4 4 4 3 4 4 3 1 3 8 3 3 4 5 5 5 5 6 6 6 7 7 8 8 8 8 9 12 13 13 13 14 14 13 12 11 11 11
3 5 6 5 4 7 5 4 3 3 3 3 2 2 2 2 2 3 4 4 5 5 5 6 7 7 7 8 8 8 7 7 8 9 11 13 13 12 11 10 11 11 12
2 3 5 5 4 4 4 4 3 4 3 3 2 2 1 1 2 2 2 3 4 5 4 4 4 7 8 9 9 9 7 3 8 9 11 9 10 12 10 9 10 13 12
3 3 4 4 4 5 5 3 3 2 1 2 2 1 0 2 2 3 2 2 2 3 4 4 3 5 8 12 13 13 19 23 16 12 9 10 11 13 12 10 11 9 12
3 3 3 4 4 4 4 4 3 2 1 1 2 2 3 3 3 4 5 5 4 4 4 3 5 8 9 8 12 19 24 24 20 23 8 7 9 9 9 10 13 9 9
Wind_Direction
188 183 191 221 239 258 267 285 294 302 303 304 297 292 291 285 276 262 267 274 268 266 257 257 260 255 250 245 245 246 246 246 260 271 273 277 275 278 284 288 282 290 267
181 182 202 214 228 271 279 289 297 290 295 296 298 290 283 282 283 278 277 277 274 276 274 263 263 261 257 250 245 248 247 247 259 275 269 269 262 265 269 272 275 265 267
177 182 197 216 197 237 260 280 286 289 294 301 305 294 290 288 285 274 273 276 274 277 273 267 262 260 261 256 252 251 250 249 253 265 272 268 269 262 259 260 262 262 257
180 179 198 214 212 231 254 273 277 295 300 303 302 299 297 293 286 284 279 274 269 266 266 266 262 257 255 255 251 251 251 250 250 256 265 265 258 256 254 251 260 258 259
183 190 208 203 201 219 246 258 282 292 284 284 296 295 295 294 288 285 270 269 269 271 268 265 263 260 259 257 252 250 249 251 250 250 257 258 252 244 240 241 252 259 261
190 200 193 181 193 227 255 264 297 291 286 282 295 290 294 297 301 299 295 285 280 277 279 276 271 271 271 269 267 263 251 244 244 246 250 248 249 245 239 233 240 238 252
193 191 192 186 201 227 245 290 287 283 294 287 289 284 290 291 304 302 300 292 286 282 280 279 276 269 272 266 262 262 258 252 245 240 243 244 245 244 249 239 231 232 239
191 193 193 183 201 221 237 258 268 265 277 288 293 292 289 294 313 310 306 296 285 280 277 278 277 277 273 275 270 262 255 249 247 244 242 244 242 237 245 245 242 249 257
203 200 192 185 194 198 230 242 242 232 285 272 270 292 289 293 314 319 309 297 290 284 283 282 284 282 281 281 275 270 266 259 252 247 243 245 240 235 231 236 232 231 239
214 207 181 182 187 196 209 214 222 190 246 270 294 272 296 304 311 317 317 304 298 294 290 295 296 295 295 289 278 272 268 261 251 246 244 241 238 234 228 236 243 230 228
205 176 180 182 187 196 183 184 186 237 287 294 288 298 295 292 308 322 322 323 312 311 311 309 300 301 301 301 294 283 268 259 246 248 240 236 230 228 224 223 234 241 237
182 179 182 179 190 180 187 200 198 224 302 302 305 308 281 283 308 322 334 335 334 326 316 309 302 318 323 324 319 308 303 280 216 236 240 231 218 215 216 219 225 236 240
178 182 177 172 186 177 171 217 227 211 274 292 274 286 303 311 296 320 340 344 344 343 327 330 332 336 339 333 336 345 357 243 224 229 223 211 208 212 215 220 224 232 242
187 175 165 170 178 179 192 186 172 220 254 267 267 281 293 309 314 334 343 335 343 343 341 326 340 342 350 356 346 354 359 353 283 215 212 211 206 210 216 212 222 217 221
182 170 167 174 176 172 189 188 189 227 200 238 250 251 320 333 341 357 358 351 356 353 350 341 339 355 354 354 349 354 5 360 352 331 253 220 219 220 220 215 214 225 214
176 169 168 159 160 163 167 169 236 187 43 354 356 351 14 354 2 5 9 8 9 9 5 1 349 360 357 351 352 355 1 359 348 341 329 310 242 228 225 222 212 212 219
175 161 162 153 150 146 161 162 155 45 50 26 9 10 13 11 10 10 13 15 15 16 10 2 357 354 354 348 353 359 357 352 345 348 340 338 329 301 236 233 209 216 210
152 162 138 147 144 150 162 149 139 127 97 1 359 27 13 20 23 20 19 6 1 14 10 359 356 349 350 350 352 357 354 352 354 353 352 353 357 350 359 16 212 211 210
140 137 138 134 145 158 145 138 131 124 115 32 317 20 16 27 35 27 19 17 1 4 1 355 351 345 346 346 347 352 359 359 355 352 356 358 3 11 30 27 42 45 65
150 156 147 149 153 135 143 139 132 124 119 74 44 27 13 25 20 6 3 1 3 356 358 353 351 341 341 341 342 344 359 2 358 356 0 360 3 15 24 25 26 36 37
125 154 148 142 140 142 140 137 127 120 115 93 19 18 63 48 15 1 351 359 352 349 349 345 351 344 335 339 341 341 348 359 0 5 0 4 8 18 21 26 27 29 25
125 101 123 139 133 128 133 130 122 113 111 112 66 38 67 55 13 358 351 344 342 342 338 340 341 338 337 330 330 331 336 4 357 358 5 11 12 13 15 19 22 17 28
98 122 127 138 148 162 127 128 123 116 114 112 111 83 47 45 30 1 344 334 331 336 345 340 336 337 334 328 326 324 321 357 359 2 9 9 12 15 6 16 22 24 22
105 121 128 135 130 121 125 132 139 130 115 108 109 101 73 354 337 324 316 315 312 317 320 329 323 320 326 329 327 323 355 38 17 9 9 15 19 13 20 17 13 16 17
90 101 114 127 121 133 135 111 102 95 91 86 87 91 302 312 308 312 309 295 274 267 291 301 298 310 320 322 325 322 15 21 32 34 6 11 11 19 17 18 18 19 19
70 85 96 108 114 119 125 127 122 118 114 65 33 359 345 334 333 332 333 333 335 322 312 269 303 325 328 322 317 358 23 31 23 18 23 9 11 13 27 17 13 16 14